Flag for Norway Weather past 2 weeks in Fredrikstad, Norway

Now
55 °F

Passing clouds.


Feels Like: 52 °F
Forecast: 50 / 58 °F
Wind: 12 mph from Northwest

Location: Rygge

Current Time: Oct 2, 2014 at 9:13:47 AM

Latest Report: Oct 2, 2014 at 8:20 AM


Visibility: N/A

Pressure: 30.24 "Hg

Humidity: 94%

Dew point: 54 °F

Location of FredrikstadLocation

Historic Weather in Fredrikstad — Graph

°F

Fredrikstad temperature yesterday

Maximum temperature yesterday: 59 °F (at 1:50 PM)
Minimum temperature yesterday: 37 °F (at 3:50 AM)
Average temperature yesterday: 48 °F

Past Weeks' High & Low Weather Summary

 TemperatureHumidityPressure
High68 °F (Sep 19, 3:50 PM)100% (Sep 17, 7:20 AM)30.36 "Hg (Sep 17, 7:20 AM)
Low34 °F (Sep 23, 4:20 AM)34% (Sep 26, 6:20 PM)29.53 "Hg (Sep 25, 2:20 AM)
Average52 °F77%29.98 "Hg
* Reported Sep 17 7:20 AM — Oct 2 7:50 AM, Fredrikstad, Weather by CustomWeather, © 2014

Note: Actual official high and low records may vary slightly from our data, if they occured in-between our weather recording intervals... More about our weather records

Advertising

Fredrikstad weather history for previous 24 hours

 ConditionsComfort  
Time TempWeatherWind HumidityBarometerVisibility
7:50 AM
Oct 2
57 °FFog.5 mph100%30.21 "Hg2 mi
7:20 AMN/ADrizzle.5 mphN/A30.21 "Hg2 mi
6:50 AMN/ADrizzle.7 mphN/A30.21 "Hg2 mi
6:20 AMN/APassing clouds.6 mphN/A30.21 "Hg3 mi
5:50 AMN/ADrizzle.7 mphN/AN/A2 mi
5:20 AMN/ADrizzle.8 mphN/AN/A2 mi
4:50 AMN/ADrizzle.10 mphN/AN/A2 mi
4:20 AMN/ADrizzle.9 mphN/AN/A2 mi
3:50 AMN/ADrizzle.12 mphN/AN/A2 mi
3:20 AMN/ADrizzle.10 mphN/AN/A3 mi
2:50 AMN/A13 mphN/AN/A3 mi
2:20 AMN/ADrizzle.13 mphN/AN/A2 mi
1:50 AMN/ALight rain.13 mphN/AN/A3 mi
1:20 AMN/AHeavy rain.13 mphN/AN/A2 mi
12:50 AMN/ADrizzle.13 mphN/AN/A4 mi
12:20 AM55 °FDrizzle. Overcast.14 mph100%30.21 "Hg4 mi
11:50 PM
Oct 1
55 °FLight rain. Overcast.13 mph100%30.21 "Hg3 mi
11:20 PM54 °FLow clouds.14 mph94%30.21 "Hg4 mi
10:50 PM52 °FLight rain. Fog.15 mph100%30.21 "Hg2 mi
10:20 PM52 °FDrizzle. Fog.12 mph94%30.21 "Hg2 mi
9:50 PM52 °FDrizzle. Fog.9 mph94%30.21 "Hg2 mi
9:20 PM50 °FPassing clouds.10 mph100%30.24 "Hg3 mi
8:50 PM52 °FPassing clouds.10 mph94%30.24 "Hg3 mi
8:20 PM52 °FDrizzle. Mostly cloudy.10 mph94%30.24 "Hg2 mi
7:20 PM52 °FDrizzle. More clouds than sun.10 mph88%30.27 "Hg3 mi
6:50 PM55 °FPartly sunny.7 mph72%30.27 "HgN/A
6:20 PM55 °FPartly sunny.6 mph72%30.27 "HgN/A
5:50 PM55 °FPartly sunny.7 mph77%30.27 "HgN/A
5:20 PM55 °FPartly sunny.8 mph77%30.27 "HgN/A
4:50 PM57 °FPartly sunny.9 mph67%30.27 "HgN/A
4:20 PM57 °FPartly sunny.6 mph72%30.27 "HgN/A
3:50 PM57 °FPartly sunny.7 mph72%30.27 "HgN/A
3:20 PM55 °FPartly sunny.7 mph77%30.30 "HgN/A
2:50 PM57 °FScattered clouds.8 mph67%30.30 "HgN/A
2:20 PM59 °FPassing clouds.7 mph63%30.30 "HgN/A
1:50 PM59 °FPassing clouds.6 mph63%30.30 "HgN/A
1:20 PM57 °FScattered clouds.5 mph63%30.30 "HgN/A
12:50 PM57 °FPassing clouds.5 mph59%30.33 "HgN/A
12:20 PM57 °FPassing clouds.5 mph55%30.33 "HgN/A
11:50 AM54 °FPassing clouds.5 mph63%30.33 "HgN/A
11:20 AM52 °FSunny.7 mph67%30.33 "Hg10 mi
10:50 AM50 °FSunny.3 mph76%30.33 "Hg10 mi
10:20 AM48 °FSunny.1 mph87%30.33 "Hg10 mi
9:50 AM46 °FSunny.2 mph87%30.33 "Hg10 mi
9:20 AM45 °FSunny.2 mph93%30.33 "Hg10 mi
Weather by CustomWeather, © 2014

See weather overviewHow to use our weather pages